timestamp,wind_dir_avg,wind_spd_avg,wind_spd_max_dir,wind_spd_gust,battery_voltage,lat,long
2023-04-18 00:04:01+00:00,92.0,2.6,87.0,3.68,12.65,47.59359,-54.27349
2023-04-18 00:14:00+00:00,97.0,2.79,104.0,4.22,12.33,47.59359,-54.27349
2023-04-18 00:24:00+00:00,92.0,3.11,101.0,4.17,12.33,47.59359,-54.27349
2023-04-18 00:34:00+00:00,78.0,2.86,69.0,4.65,12.33,47.59359,-54.27349
2023-04-18 00:44:00+00:00,90.0,2.63,68.0,4.06,12.33,47.59359,-54.27349
2023-04-18 00:54:00+00:00,89.0,3.08,99.0,4.08,12.33,47.59359,-54.27349
2023-04-18 01:04:00+00:00,92.0,3.12,80.0,4.4,12.33,47.59359,-54.27349
2023-04-18 01:14:00+00:00,79.0,3.53,86.0,7.24,12.33,47.59359,-54.27349
2023-04-18 01:24:00+00:00,81.0,2.93,86.0,3.72,12.33,47.59359,-54.27349
2023-04-18 01:34:00+00:00,77.0,3.06,69.0,4.04,12.33,47.59359,-54.27349
2023-04-18 01:44:00+00:00,68.0,3.42,55.0,4.29,12.33,47.59359,-54.27349
2023-04-18 01:54:00+00:00,87.0,2.67,96.0,4.14,12.33,47.59359,-54.27349
2023-04-18 02:04:00+00:00,88.0,1.47,118.0,2.58,12.33,47.59359,-54.27349
2023-04-18 02:14:00+00:00,76.0,2.31,89.0,3.63,12.25,47.59359,-54.27349
2023-04-18 02:24:00+00:00,77.0,2.0,83.0,3.21,12.25,47.59359,-54.27349
2023-04-18 02:34:00+00:00,95.0,2.21,97.0,3.68,12.25,47.59359,-54.27349
2023-04-18 02:44:00+00:00,86.0,2.27,95.0,3.53,12.25,47.59359,-54.27349
2023-04-18 02:54:00+00:00,82.0,3.09,78.0,4.08,12.25,47.59359,-54.27349
2023-04-18 03:04:00+00:00,78.0,1.59,87.0,2.43,12.25,47.59359,-54.27349
2023-04-18 03:14:00+00:00,74.0,2.34,73.0,3.26,12.25,47.59359,-54.27349
2023-04-18 03:24:00+00:00,72.0,2.45,70.0,3.3,12.25,47.59359,-54.27349
2023-04-18 03:34:00+00:00,72.0,2.15,66.0,3.18,12.25,47.59359,-54.27349
2023-04-18 03:44:00+00:00,67.0,3.01,63.0,3.62,12.25,47.59359,-54.27349
2023-04-18 03:54:00+00:00,34.0,1.59,23.0,2.15,12.25,47.59359,-54.27349
2023-04-18 04:04:00+00:00,41.0,2.57,55.0,3.51,12.25,47.59359,-54.27349
2023-04-18 04:14:00+00:00,60.0,3.64,58.0,3.92,12.25,47.59359,-54.27349
2023-04-18 04:24:00+00:00,51.0,2.05,55.0,3.34,12.25,47.59359,-54.27349
2023-04-18 04:34:00+00:00,46.0,3.01,52.0,3.85,12.25,47.59359,-54.27349
2023-04-18 04:44:00+00:00,39.0,2.32,40.0,2.66,12.25,47.59359,-54.27349
2023-04-18 04:54:00+00:00,36.0,2.27,38.0,2.72,12.25,47.59359,-54.27349
2023-04-18 05:04:00+00:00,43.0,2.24,38.0,2.63,12.25,47.59359,-54.27349
2023-04-18 06:14:00+00:00,71.0,3.3,55.0,4.16,12.17,47.59359,-54.27349
2023-04-18 06:24:00+00:00,67.0,3.72,65.0,4.43,12.17,47.59359,-54.27349
2023-04-18 06:34:00+00:00,62.0,4.04,59.0,4.85,12.17,47.59359,-54.27349
2023-04-18 06:44:00+00:00,66.0,4.11,65.0,4.58,12.17,47.59359,-54.27349
2023-04-18 06:54:00+00:00,61.0,4.3,60.0,4.79,12.17,47.59359,-54.27349
2023-04-18 07:04:00+00:00,63.0,3.45,59.0,4.08,12.17,47.59359,-54.27349
2023-04-18 07:14:01+00:00,65.0,3.9,57.0,4.93,12.17,47.59359,-54.27349
2023-04-18 07:24:01+00:00,62.0,3.85,60.0,4.24,12.17,47.59359,-54.27349
2023-04-18 07:34:01+00:00,64.0,4.16,68.0,4.42,12.17,47.59359,-54.27349
2023-04-18 07:44:01+00:00,65.0,3.94,60.0,4.66,12.17,47.59359,-54.27349
2023-04-18 07:54:01+00:00,64.0,4.53,77.0,8.22,12.17,47.59359,-54.27349
2023-04-18 08:04:01+00:00,56.0,4.48,54.0,4.88,12.17,47.59359,-54.27349
2023-04-18 08:14:01+00:00,54.0,4.15,55.0,4.5,12.09,47.59359,-54.27349
2023-04-18 08:24:01+00:00,58.0,4.19,59.0,4.49,12.09,47.59359,-54.27349
2023-04-18 08:34:01+00:00,58.0,4.35,61.0,4.91,12.09,47.59359,-54.27349
2023-04-18 08:44:01+00:00,52.0,4.35,51.0,4.7,12.09,47.59359,-54.27349
2023-04-18 08:54:01+00:00,59.0,4.53,64.0,6.2,12.09,47.59359,-54.27349
2023-04-18 09:04:01+00:00,52.0,4.66,51.0,4.96,12.09,47.59359,-54.27349
2023-04-18 09:14:00+00:00,52.0,4.65,50.0,4.97,12.09,47.59359,-54.27349
2023-04-18 09:24:00+00:00,65.0,6.22,73.0,9.06,12.09,47.59359,-54.27349
2023-04-18 09:34:00+00:00,60.0,5.0,72.0,7.83,12.09,47.59359,-54.27349
2023-04-18 09:44:00+00:00,67.0,5.5,74.0,9.06,12.09,47.59359,-54.27349
2023-04-18 09:54:00+00:00,60.0,3.99,62.0,4.5,12.09,47.59359,-54.27349
2023-04-18 10:04:00+00:00,56.0,4.9,66.0,5.97,12.09,47.59359,-54.27349
2023-04-18 10:14:01+00:00,67.0,7.37,70.0,9.53,13.44,47.59359,-54.27349
2023-04-18 10:24:01+00:00,56.0,5.31,68.0,8.83,13.44,47.59359,-54.27349
2023-04-18 10:34:01+00:00,58.0,5.2,72.0,8.08,13.44,47.59359,-54.27349
2023-04-18 10:44:01+00:00,61.0,4.25,58.0,4.81,13.44,47.59359,-54.27349
2023-04-18 10:54:01+00:00,66.0,3.85,61.0,4.33,13.44,47.59359,-54.27349
2023-04-18 11:04:01+00:00,70.0,3.75,68.0,4.23,13.44,47.59359,-54.27349
2023-04-18 11:14:01+00:00,65.0,3.78,57.0,4.44,13.6,47.59359,-54.27349
2023-04-18 11:24:01+00:00,66.0,3.64,58.0,4.09,13.6,47.59359,-54.27349
2023-04-18 11:34:01+00:00,101.0,2.15,68.0,2.94,13.6,47.59359,-54.27349
2023-04-18 11:44:01+00:00,102.0,2.22,123.0,4.0,13.6,47.59359,-54.27349
2023-04-18 11:54:01+00:00,89.0,1.94,117.0,2.79,13.6,47.59359,-54.27349
2023-04-18 12:04:01+00:00,76.0,2.34,70.0,3.11,13.6,47.59359,-54.27349
2023-04-18 12:14:00+00:00,80.0,2.18,73.0,2.89,14.4,47.59359,-54.27349
2023-04-18 12:24:00+00:00,81.0,2.41,72.0,3.49,14.4,47.59359,-54.27349
2023-04-18 12:34:00+00:00,50.0,4.38,49.0,5.0,14.4,47.59359,-54.27349
2023-04-18 12:44:00+00:00,50.0,4.68,50.0,5.01,14.4,47.59359,-54.27349
2023-04-18 12:54:00+00:00,46.0,4.08,47.0,4.42,14.4,47.59359,-54.27349
2023-04-18 13:04:00+00:00,36.0,4.58,37.0,5.41,14.4,47.59359,-54.27349
2023-04-18 13:14:00+00:00,41.0,4.98,40.0,5.9,14.4,47.59359,-54.27349
2023-04-18 13:24:00+00:00,39.0,4.46,38.0,4.98,14.4,47.59359,-54.27349
2023-04-18 13:34:00+00:00,30.0,2.93,42.0,3.68,14.4,47.59359,-54.27349
2023-04-18 13:44:00+00:00,91.0,2.06,121.0,3.18,14.4,47.59359,-54.27349
2023-04-18 13:54:00+00:00,82.0,2.36,80.0,3.37,14.4,47.59359,-54.27349
2023-04-18 14:04:00+00:00,91.0,1.71,84.0,3.05,14.4,47.59359,-54.27349
2023-04-18 14:14:00+00:00,81.0,2.43,77.0,3.61,13.76,47.59359,-54.27349
2023-04-18 14:24:00+00:00,26.0,3.07,32.0,3.58,13.76,47.59359,-54.27349
2023-04-18 14:34:00+00:00,15.0,3.15,31.0,3.63,13.76,47.59359,-54.27349
2023-04-18 14:44:00+00:00,13.0,3.03,32.0,3.44,13.76,47.59359,-54.27349
2023-04-18 14:54:00+00:00,15.0,2.98,27.0,3.41,13.76,47.59359,-54.27349
2023-04-18 15:04:00+00:00,33.0,2.65,36.0,2.88,13.76,47.59359,-54.27349
2023-04-18 15:14:00+00:00,23.0,2.91,22.0,3.35,14.4,47.59359,-54.27349
2023-04-18 15:24:00+00:00,19.0,3.28,22.0,3.77,14.4,47.59359,-54.27349
2023-04-18 15:34:00+00:00,16.0,3.62,14.0,4.06,14.4,47.59359,-54.27349
2023-04-18 15:44:00+00:00,17.0,3.39,8.0,3.92,14.4,47.59359,-54.27349
2023-04-18 15:54:00+00:00,14.0,3.67,16.0,4.34,14.4,47.59359,-54.27349
2023-04-18 16:04:00+00:00,16.0,3.85,19.0,4.32,14.4,47.59359,-54.27349
2023-04-18 16:14:01+00:00,23.0,3.75,19.0,4.56,14.0,47.59359,-54.27349
2023-04-18 16:24:01+00:00,25.0,4.36,26.0,5.23,14.0,47.59359,-54.27349
2023-04-18 16:34:01+00:00,30.0,4.48,30.0,4.91,14.0,47.59359,-54.27349
2023-04-18 16:44:01+00:00,35.0,4.91,36.0,5.19,14.0,47.59359,-54.27349
2023-04-18 16:54:01+00:00,34.0,4.3,34.0,4.67,14.0,47.59359,-54.27349
2023-04-18 17:04:01+00:00,31.0,4.4,32.0,4.62,14.0,47.59359,-54.27349
2023-04-18 17:14:00+00:00,30.0,4.32,31.0,4.57,14.4,47.59359,-54.27349
2023-04-18 17:24:00+00:00,29.0,4.08,32.0,4.48,14.4,47.59359,-54.27349
2023-04-18 17:34:00+00:00,30.0,4.05,32.0,4.32,14.4,47.59359,-54.27349
2023-04-18 17:44:00+00:00,32.0,3.56,33.0,4.11,14.4,47.59359,-54.27349
2023-04-18 17:54:00+00:00,40.0,3.45,41.0,3.86,14.4,47.59359,-54.27349
2023-04-18 18:04:00+00:00,37.0,4.19,37.0,4.48,14.4,47.59359,-54.27349
2023-04-18 18:14:01+00:00,52.0,3.56,53.0,4.52,14.08,47.59359,-54.27349
2023-04-18 18:24:01+00:00,50.0,3.65,52.0,4.29,14.08,47.59359,-54.27349
2023-04-18 18:34:01+00:00,43.0,3.83,38.0,4.23,14.08,47.59359,-54.27349
2023-04-18 18:44:01+00:00,40.0,3.88,42.0,4.4,14.08,47.59359,-54.27349
2023-04-18 18:54:01+00:00,48.0,3.48,57.0,4.4,14.08,47.59359,-54.27349
2023-04-18 19:04:01+00:00,49.0,2.95,69.0,5.1,14.08,47.59359,-54.27349
2023-04-18 19:14:00+00:00,61.0,2.92,75.0,5.3,13.68,47.59359,-54.27349
2023-04-18 19:24:00+00:00,84.0,5.07,85.0,5.36,13.68,47.59359,-54.27349
2023-04-18 19:34:00+00:00,139.0,0.5,143.0,0.59,13.68,47.59359,-54.27349
2023-04-18 19:44:00+00:00,132.0,2.43,116.0,3.95,13.68,47.59359,-54.27349
2023-04-18 19:54:00+00:00,176.0,1.58,175.0,1.67,13.68,47.59359,-54.27349
2023-04-18 20:04:00+00:00,190.0,3.01,191.0,3.42,13.68,47.59359,-54.27349
2023-04-18 20:14:00+00:00,207.0,3.56,209.0,3.86,13.68,47.59359,-54.27349
2023-04-18 20:24:00+00:00,220.0,2.73,217.0,3.0,13.68,47.59359,-54.27349
2023-04-18 20:34:00+00:00,217.0,4.04,217.0,4.31,13.68,47.59359,-54.27349
2023-04-18 20:44:00+00:00,217.0,4.11,216.0,4.61,13.68,47.59359,-54.27349
2023-04-18 20:54:00+00:00,207.0,4.03,203.0,4.5,13.68,47.59359,-54.27349
2023-04-18 21:04:00+00:00,202.0,4.68,202.0,5.11,13.68,47.59359,-54.27349
2023-04-18 21:14:00+00:00,199.0,3.53,200.0,4.0,13.6,47.59359,-54.27349
2023-04-18 21:24:00+00:00,193.0,3.51,194.0,3.71,13.6,47.59359,-54.27349
2023-04-18 21:34:00+00:00,189.0,3.32,193.0,3.94,13.6,47.59359,-54.27349
2023-04-18 21:44:00+00:00,118.0,6.21,118.0,7.23,13.6,47.59359,-54.27349
2023-04-18 21:54:00+00:00,131.0,8.96,134.0,9.77,13.6,47.59359,-54.27349
2023-04-18 22:04:00+00:00,137.0,6.85,129.0,8.96,13.6,47.59359,-54.27349
2023-04-18 22:14:00+00:00,141.0,7.54,124.0,8.87,13.21,47.59359,-54.27349
2023-04-18 22:24:00+00:00,128.0,7.93,125.0,8.98,13.21,47.59359,-54.27349
2023-04-18 22:34:00+00:00,137.0,6.86,122.0,8.49,13.21,47.59359,-54.27349
2023-04-18 22:44:00+00:00,135.0,7.1,132.0,8.44,13.21,47.59359,-54.27349
2023-04-18 22:54:00+00:00,136.0,6.5,124.0,7.53,13.21,47.59359,-54.27349
2023-04-18 23:04:00+00:00,136.0,5.83,134.0,6.82,13.21,47.59359,-54.27349
2023-04-18 23:14:00+00:00,137.0,6.29,144.0,7.31,12.57,47.59359,-54.27349
2023-04-18 23:24:00+00:00,132.0,7.05,129.0,9.34,12.57,47.59359,-54.27349
2023-04-18 23:34:00+00:00,135.0,6.88,136.0,8.47,12.57,47.59359,-54.27349
2023-04-18 23:44:00+00:00,134.0,6.01,122.0,8.69,12.57,47.59359,-54.27349
2023-04-18 23:54:00+00:00,121.0,8.41,118.0,10.86,12.57,47.59359,-54.27349
